Regional Weather Roundup
Issued by NWS Green Bay, WI

Home | Current Version | Previous Version | Text Only | Print | Product List | Glossary On
Versions: 1 2 3 4 5 6 7 8 9 10 11 12 13 14 15 16 17 18 19 20 21 22 23 24 25 26 27 28 29 30 31 32 33 34 35 36 37 38 39 40 41 42 43 44 45 46 47 48 49 50
000
ASUS43 KGRB 271400
RWRGRB

NORTH-CENTRAL AND NORTHEAST WISCONSIN REGIONAL WEATHER ROUNDUP
NATIONAL WEATHER SERVICE GREEN BAY WI
900 AM CDT WED MAY 27 2015

WIZ005-009-010>012-018-019-271500-
NORTH CENTRAL WISCONSIN

CITY           SKY/WX    TMP DP  RH WIND       PRES   REMARKS
IRONWOOD       CLOUDY    57  55  94 W10       29.81R
MANITOWISH WTR NOT AVBL
ARBOR VITAE    NOT AVBL
EAGLE RIVER    NOT AVBL
LAND O LAKES   NOT AVBL
RHINELANDER    LGT RAIN  54  53  97 W8        29.88R
PHILLIPS       NOT AVBL
ANTIGO         NOT AVBL
TOMAHAWK       NOT AVBL
MERRILL        NOT AVBL
$$

WIZ013-073-271500-
NORTHEAST WISCONSIN

CITY           SKY/WX    TMP DP  RH WIND       PRES   REMARKS
IRON MOUNTAIN  LGT RAIN  56  53  90 NW9G18    29.81R
MARINETTE      CLOUDY    57  54  88 NW9       29.80R
$$

WIZ017-030-035>037-045-271500-
CENTRAL WISCONSIN

CITY           SKY/WX    TMP DP  RH WIND       PRES   REMARKS
MEDFORD        NOT AVBL
WAUSAU         LGT RAIN  56  55  97 W7        29.89R
MOSINEE        LGT RAIN  55  55 100 W6          N/A
MARSHFIELD     RAIN      58  54  86 W7        29.92R FOG
WISC RAPIDS    LGT RAIN  59  55  87 NW8       29.93R
STEVENS POINT  NOT AVBL
WAUPACA        NOT AVBL
SHAWANO        NOT AVBL
CLINTONVILLE   NOT AVBL
$$

WIZ038-039-048-051-271500-
FOX VALLEY

CITY           SKY/WX    TMP DP  RH WIND       PRES   REMARKS
NWS GREEN BAY  CLOUDY    61  56  83 W13       29.85R
APPLETON       PTSUNNY   61  54  77 W15G21    29.87R
OSHKOSH        CLOUDY    64  55  72 W12G21    29.87R
FOND DU LAC    CLOUDY    63  56  78 W12G22    29.87R
$$

WIZ022-050-052-271500-
EAST CENTRAL WISCONSIN

CITY           SKY/WX    TMP DP  RH WIND       PRES   REMARKS
STURGEON BAY   CLOUDY    57  54  88 W12G17    29.83R
MANITOWOC      NOT AVBL
SHEBOYGAN      PTSUNNY   65  56  72 W15G23    29.85R
$$

LMZ563-521-522-541>543-271500-
LAKESHORE

STATION/POSITION TIME  TEMP    WIND        PRES    VSBY  WAVE
                       AIR SEA DIR/SP/G                  HT/PER
                 (UTC) (F)     (DEG/KT/KT) (MB)    (MI)  (FT/S)
SHEBOYGAN LKSHOR 1300   64     250/ 15/ 19 1010.4R
KEWAUNEE LKSHORE 1300   61     270/ 12/ 17 1008.4R
ALGOMA MARINA    1338          260/  8/ 15   N/A
NORTHPORT PIER   1300   55     300/  4/  9 1008.1R
N MID LAKE BUOY  1250   44 37  240/ 10/ 10 1008.0R         5/ 6
SISTER BAY LKSHO 1318   55     360/  9/  9   N/A
CHAMBERS ISLAND  1300   56     270/  3/  9 1008.5R
MENOMINEE LKSHOR 1300   58     280/  5/ 12 1009.0R
$$



USA.gov is the U.S. government's official web portal to all federal, state and local government web resources and services.